User: anonymous   Login
Location: Caltech
(34.1382°N, 118.1253°W)
Time: 03:29:23
(UTC-07:00)
Language:

Uribyol 2 - Orbit

View from above orbital plane
View from above orbital plane
View from above satellite
View from above satellite

Ground track
Ground track

The orbit data is extracted from the following two-line orbital elements,

1 22828U 93061F   17147.86998987 +.00000013 +00000-0 +22526-4 0  9990
2 22828 098.7954 112.0584 0009810 356.6315 003.4799 14.30635421202807
Epoch (UTC): 27 May 2017 20:52:47
Eccentricity: 0.0009810
inclination: 98.7954°
perigee height: 782 km
apogee height: 796 km
right ascension of ascending node: 112.0584°
argument of perigee: 356.6315°
revolutions per day: 14.30635421
mean anomaly at epoch: 3.4799°
orbit number at epoch: 20280

The dashed part of the orbit path shows where the satellite is in the earth's shadow,  

DLR